Terminal Aerodrome Forecast
Issued by NWS Cleveland, OH

Home | Current Version | Previous Version | Text Only | Print | Product List | Glossary Off
Versions: 1 2 3 4 5 6 7 8 9 10 11 12 13

576
FTUS41 KCLE 231730
TAFERI
TAF
KERI 231730Z 2318/2418 35006KT P6SM SKC
     FM240200 17002KT P6SM FEW250=

USA.gov is the U.S. government's official web portal to all federal, state and local government web resources and services.